sat.trackr.live / text

‹ back to catalog

STARLINK-5508

NORAD 55639 · 2023-021M

PAYLOAD ACTIVE UNKNOWN

§ Identity

Operator
Country
US
Launch date
2023-02-17
Launch site
AFWTR
Launch vehicle
Mass (kg)
RCS (m²)

Purposes: comms

External: N2YO · Heavens-Above · Gunter

§ Orbital elements

Epoch: 2026-09-20T16:59:56.256864Z

Period
96.11 min
Inclination
70.0002°
Eccentricity
0.0002727
Mean motion
14.98333014 rev/d
Perigee alt
570.2 km
Apogee alt
573.9 km
Semi-major
6,950.2 km
B*
2.6277e-5
RAAN
52.7316°
Arg perigee
267.4652°
Mean anomaly
92.6195°
Rev number
19,800

§ Raw data

STARLINK-55081 55639U 23021M   26263.70829001  .00000221  00000+0  26277-4 0  99942 55639  70.0002  52.7316 0002727 267.4652  92.6195 14.98333014198009

JSON: /api/v1/satellites/55639 · /tle

For live sub-satellite position, see the globe view (requires WebGL).

§ Visibility from observer

Set your observer location to see the next 7 days of passes ≥ 10°. The values pass through the URL so the page stays shareable.

No JS? Fill the form by hand. The geolocation button needs JavaScript.